TIME,DELAY(SENSOR),PRES,T(CTD),SAL,OXYGEN,RAWTEMP,T(OPTODE),TCPHASE,FLUOR,BETA(BETA700),BETA(BETA412),BETA(BETA440),CDOM,C(CSC),ED(ED411.90),ED(ED443.80),ED(ED489.40),ED(ED554.70),LU(LU412.20),LU(LU443.80),LU(LU489.40),LU(LU555.00),COMP,TILTX,TILTX(TILTY),CHECK
1366474671,5805,497.4800109863281000,16.9482002258300780,36.3390007019043000,202.7866973876953000,189.6307067871093800,16.9609203338623050,32.9073486328125000,50,101,96,79,68,11314,2146959049,2147517321,2147268388,2147459904,2147082349,2146956754,2147658514,2147119570,2957,-1,8,42090
1366474798,5804,486.5799865722656000,17.0772991180419920,36.3700981140136700,211.3683929443359400,184.8497924804687500,17.1050701141357420,32.3554611206054700,50,100,96,80,69,11319,2146954962,2147516507,2147270025,2147459236,2147080850,2146958235,2147657005,2147121609,3140,-1,8,45427
1366474927,5805,475.3900146484375000,17.1655998229980470,36.3833007812500000,213.4615020751953000,183.1419982910156200,17.1565704345703120,32.2169303894043000,50,100,95,82,69,11315,2146958235,2147517110,2147270656,2147457938,2147080923,2146955565,2147656749,2147121234,140,-1,8,54914
1366475054,5805,464.4899902343750000,17.3113002777099600,36.4061012268066400,212.9580993652343800,178.0652008056640600,17.3096904754638670,32.1740188598632800,50,102,97,81,69,11318,2146958491,2147516032,2147267392,2147456960,2147081874,2146954614,2147656420,2147119305,362,-1,8,9337
1366475183,5806,453.6199951171875000,17.3589000701904300,36.4042015075683600,208.2350006103515600,176.6096038818359400,17.3535995483398440,32.4147300720214840,51,105,96,80,69,11317,2146958893,2147516973,2147268635,2147457142,2147084324,2146956818,2147658340,2147131318,2839,-2,8,54966
1366475322,5805,442.1400146484375000,17.5701999664306640,36.4511985778808600,208.1394958496093800,169.6468048095703000,17.5636692047119140,32.3236389160156250,50,103,95,81,67,11319,2146958098,2147516434,2147266029,2147453604,2147083757,2146958198,2147654646,2147127625,2759,-2,8,58264
1366475449,5806,431.9800109863281000,17.8379993438720700,36.5265998840332000,227.9402008056640600,160.5991058349609400,17.8367500305175780,31.1527900695800780,50,99,95,80,67,11321,2146957869,2147516992,2147264813,2147456237,2147082011,2146957028,2147652233,2147126784,1303,-2,8,7245
1366475578,5803,421.6000061035156000,17.8798999786376950,36.5274009704589840,229.6244049072265600,159.1504974365234400,17.8804798126220700,31.0490608215332030,50,102,96,79,67,11316,2146956068,2147513691,2147264548,2147452443,2147082825,2146959488,2147648530,2147124745,1204,-1,8,45525
1366475717,5804,410.4599914550781000,17.8726997375488280,36.5228996276855500,227.6632995605468800,159.5368041992187500,17.8688201904296880,31.1519107818603500,50,101,95,79,67,11320,2146955236,2147514176,2147264219,2147449252,2147083995,2146958281,2147652333,2147130852,1471,-1,8,10529
1366475858,5806,398.9899902343750000,17.9309997558593750,36.5246009826660160,222.7608032226562500,158.4714965820312500,17.9009799957275400,31.3866004943847660,50,101,96,80,67,11319,2146958747,2147513801,2147264950,2147453275,2147080603,2146956196,2147651172,2147128914,2290,-1,8,45984
1366475985,5801,388.6700134277344000,17.8925991058349600,36.5018005371093750,216.4095001220703000,159.0189056396484400,17.8844604492187500,31.7264804840087900,50,105,96,80,67,11310,2146960932,2147516086,2147266413,2147452096,2147082459,2146955072,2147654546,2147126262,1644,-1,8,57961
1366476126,5802,377.0700073242187500,17.9505996704101560,36.5088005065918000,215.2518005371093800,156.9447937011718800,17.9470806121826170,31.7600097656250000,50,103,97,80,69,11313,2146957330,2147516425,2147264146,2147448886,2147082742,2146957778,2147648640,2147131602,232,-1,8,40652
1366476253,5806,366.5899963378906000,18.0221004486084000,36.5214004516601560,214.5283050537109400,154.3798980712890600,18.0245399475097660,31.7635192871093750,50,105,96,81,68,11313,2146956123,2147517147,2147264201,2147451949,2147083227,2146956361,2147649307,2147134665,2790,-1,8,19891
1366476392,5804,355.2099914550781000,18.1469993591308600,36.5442008972168000,216.4194030761718800,150.5363006591797000,18.1406402587890620,31.6100196838378900,50,106,96,81,68,11312,2146958445,2147517074,2147265654,2147451812,2147079670,2146950875,2147651309,2147130605,2077,-2,8,32048
1366476521,5806,344.7300109863281000,18.2390995025634770,36.5597000122070300,218.1620941162109400,147.4817047119140600,18.2329292297363280,31.4768390655517580,50,108,97,82,67,11311,2146957110,2147514148,2147262957,2147452342,2147083026,2146959296,2147651483,2147127652,1096,-1,8,28624
1366476660,5804,333.3699951171875000,18.2416992187500000,36.5570983886718750,218.3455963134765600,147.4084930419922000,18.2351398468017580,31.4660892486572270,50,105,95,82,68,11308,2146959561,2147516406,2147265389,2147451163,2147080859,2146959524,2147647917,2147128896,729,-1,8,25007
1366476801,5803,322.3099975585937500,18.3628005981445300,36.5733985900878900,216.2154998779297000,143.0437927246093800,18.3670291900634770,31.5193500518798830,50,106,96,80,68,11310,2146958171,2147516105,2147265920,2147445851,2147082770,2146958244,2147646372,2147131977,602,-2,8,39833
1366476940,5806,311.6400146484375000,18.4326992034912100,36.5831985473632800,218.2337036132812500,141.1018981933593800,18.4257392883300780,31.3866195678710940,51,103,95,81,68,11310,2146959716,2147513398,2147266121,2147451611,2147073316,2146958994,2147649024,2147124617,161,-1,8,11728
1366477088,5807,299.9899902343750000,18.4512004852294920,36.5750007629394500,212.5619964599609400,140.4398956298828000,18.4457492828369140,31.6799602508544920,50,105,97,81,69,11305,2146956086,2147515291,2147265673,2147447232,2147077714,2146960877,2147647003,2147129234,727,-1,8,9259
1366477204,5806,289.0000000000000000,18.5337009429931640,36.5802001953125000,210.2115020751953000,137.4868927001953000,18.5350303649902340,31.7676906585693360,51,105,96,80,69,11307,2146958793,2147513069,2147263369,2147448173,2147073444,2146958363,2147649910,2147128859,3189,-1,8,25235
1366477319,5805,278.2699890136719000,18.6973991394042970,36.5990982055664060,208.9656982421875000,132.3730926513672000,18.6896800994873050,31.7664794921875000,50,102,95,81,69,11307,2146957312,2147517248,2147262683,2147449536,2147078774,2146961453,2147650121,2147129993,3331,-2,8,2092
1366477448,5803,266.6400146484375000,18.8971004486084000,36.6217994689941400,209.0518951416015600,125.5558013916015600,18.8959598541259770,31.6694698333740230,52,102,95,81,69,11310,2146957659,2147516150,2147265024,2147448859,2147076845,2146960109,2147650944,2147131163,2867,-1,8,47350
1366477575,5802,254.7400054931640600,18.9936008453369140,36.6338005065918000,210.8343048095703000,122.4936981201171900,18.9886493682861330,31.5306205749511720,51,104,95,81,69,11304,2146958326,2147514770,2147262573,2147446189,2147067712,2146964745,2147649782,2147126756,2399,-1,8,41873
1366477692,5807,244.0000000000000000,19.1604995727539060,36.6478996276855500,212.8283996582031200,116.7015991210937500,19.1640491485595700,31.3446693420410160,51,103,96,81,68,11310,2146960164,2147511158,2147263515,2147449572,2147084361,2146966116,2147654656,2147129691,1797,-1,9,58491
1366477807,5802,233.8300018310547000,19.4391994476318360,36.6584014892578100,212.8744964599609400,107.7339019775390600,19.4358100891113280,31.2219009399414060,52,106,97,81,67,11302,2146958701,2147514258,2147262436,2147444004,2147076498,2146960118,2147654509,2147130706,1936,-2,8,47605
1366477946,5804,222.6399993896484400,19.5755996704101560,36.6669998168945300,214.9048004150390600,103.3848037719726600,19.5676898956298830,31.0558490753173830,51,105,96,82,68,11304,2146960201,2147512850,2147263396,2147445339,2147077595,2146966244,2147652836,2147128448,1329,-1,8,43072
1366478087,5805,211.4100036621093800,19.6604003906250000,36.6716995239257800,214.9667053222656200,99.4093170166015600,19.6882991790771500,30.9995899200439450,51,105,97,82,68,11301,2146956086,2147514614,2147263277,2147441088,2147082203,2146969307,2147660489,2147129408,1364,-2,8,16209
1366478226,5804,200.8500061035156200,20.1002998352050780,36.6943016052246100,217.7539062500000000,86.2480468750000000,20.0879497528076170,30.6793098449707030,53,113,97,80,68,11301,2146957796,2147517421,2147261330,2147441325,2147082486,2146970624,2147657252,2147129901,1185,-1,8,11606
1366478281,5806,196.7799987792968800,20.2649993896484380,36.7033004760742200,218.3876037597656200,80.3471908569336000,20.2673397064209000,30.5688495635986330,53,105,97,82,67,11293,2146953746,2147514459,2147261211,2147440502,2147081792,2146974153,2147652809,2147132032,936,-1,8,25755
1366478356,5807,191.7500000000000000,20.3847007751464840,36.7081985473632800,219.5276031494140600,76.6070327758789000,20.3810997009277340,30.4611797332763670,54,105,97,82,68,11299,2146956662,2147512521,2147262116,2147440429,2147084397,2146979565,2147658048,2147128923,571,-1,9,16779
1366478411,5806,188.4600067138672000,20.4871997833251950,36.6982002258300800,220.7398071289062500,73.3504409790039000,20.4802093505859380,30.3568000793457030,55,108,97,82,67,11298,2146956918,2147518144,2147264393,2147444909,2147087168,2146980242,2147658578,2147128777,157,-2,8,30952
1366478490,5806,184.1300048828125000,20.6009998321533200,36.7093009948730500,223.3871002197265600,69.2952728271484400,20.6036701202392580,30.1703796386718750,58,112,97,82,67,11293,2146957970,2147514386,2147261531,2147439250,2147083977,2146980653,2147659712,2147133248,2794,-1,9,64320
1366478557,5808,180.7100067138672000,20.7875003814697270,36.7150001525878900,223.3195037841797000,63.7227897644043000,20.7734298706054700,30.1010704040527340,58,107,98,82,66,11294,2146955657,2147513362,2147261430,2147440365,2147081389,2146980077,2147656000,2147130093,2706,-1,9,47551
1366478650,5804,176.8500061035156200,20.9039001464843750,36.7193984985351560,223.5661010742187500,59.8334388732910160,20.8919906616210940,30.0382194519042970,58,108,97,81,67,11295,2146958464,2147512402,2147259200,2147436068,2147085120,2146978596,2147661211,2147130029,3424,-2,9,5301
1366478753,5807,172.9900054931640600,20.9806995391845700,36.7201995849609400,224.1696929931640600,57.1886711120605500,20.9726505279541000,29.9738807678222660,59,107,96,83,67,11293,2146957394,2147517238,2147260598,2147436909,2147086601,2146980946,2147665225,2147129892,2963,-2,8,85
1366478868,5805,169.1399993896484400,21.1303005218505860,36.7184982299804700,225.9902038574218800,52.3139801025390600,21.1214008331298830,29.8209304809570300,60,113,96,82,66,11290,2146956114,2147515986,2147258852,2147435858,2147085869,2146988690,2147673380,2147130706,1901,-2,9,55910
1366479003,5805,164.8500061035156200,21.4202995300292970,36.7167015075683600,226.7281951904297000,42.9562911987304700,21.4072494506835940,29.6642398834228500,60,109,96,83,66,11287,2146957001,2147514779,2147259666,2147433965,2147086747,2146997376,2147683712,2147130779,2447,-2,8,20759
1366479118,5805,160.8800048828125000,21.5554008483886720,36.7117004394531250,227.9102020263672000,38.5459899902343750,21.5421104431152340,29.5503807067871100,61,109,96,83,65,11288,2146959963,2147515163,2147258148,2147432786,2147092086,2147016777,2147713344,2147131803,1519,-2,9,58035
1366479233,5805,156.9499969482422000,21.6095008850097660,36.7093009948730500,228.3323059082031200,36.5798187255859400,21.6022605895996100,29.5045890808105470,60,111,96,82,65,11282,2146961225,2147512841,2147265216,2147434304,2147099501,2147031881,2147738816,2147135195,1208,-2,9,47234
1366479336,5806,152.2500000000000000,21.6928997039794920,36.7043991088867200,229.2937011718750000,33.9146003723144500,21.6838207244873050,29.4242591857910160,62,108,98,83,65,11283,2146957595,2147516425,2147264667,2147432109,2147108973,2147061732,2147782043,2147138066,1223,-2,9,15470
1366479403,5808,148.6199951171875000,21.7591991424560550,36.7070007324218750,228.5487976074218800,31.6055908203125000,21.7545204162597660,29.4305591583251950,60,110,98,82,66,11283,2146958198,2147518528,2147262208,2147429842,2147111926,2147080722,2147806857,2147140644,917,-2,9,6297
1366479482,5807,144.4600067138672000,22.0389995574951170,36.7419013977050800,222.5335998535156200,22.6591091156005860,22.0286808013916000,29.6104602813720700,61,110,96,83,66,11283,2146956297,2147517677,2147264493,2147431195,2147120384,2147090340,2147824237,2147140443,845,-1,9,3222
1366479561,5803,140.5599975585937500,22.1102008819580080,36.7307014465332000,218.3251037597656200,20.2983703613281250,22.1011009216308600,29.7911796569824220,61,112,97,83,67,11281,2146960384,2147515712,2147264557,2147429083,2147121901,2147101220,2147830244,2147144018,1133,-2,9,61641
1366479654,5804,136.3000030517578000,22.1665992736816400,36.7107009887695300,219.1508026123047000,18.4101905822753900,22.1590309143066400,29.7252407073974600,63,114,97,84,65,11278,2146957650,2147516946,2147266788,2147430820,2147134637,2147139282,2147874084,2147144365,1184,-1,9,8712
1366479745,5804,132.5599975585937500,22.1951007843017580,36.6907005310058600,222.8222045898437500,17.2847003936767580,22.1935806274414060,29.5272502899169920,65,114,97,83,65,11274,2146960219,2147518509,2147267437,2147428690,2147154989,2147181449,2147937792,2147152969,1524,-2,9,27900
1366479848,5806,128.9900054931640600,22.2306003570556640,36.6512985229492200,227.9602966308593800,16.7613906860351560,22.2096405029296880,29.2697906494140620,67,115,98,83,64,11272,2146957796,2147519488,2147270144,2147426861,2147163638,2147196754,2147951972,2147149248,1110,-2,9,48059
1366479975,5806,124.7200012207031200,22.2700004577636720,36.6214981079101560,237.3699951171875000,15.1188898086547850,22.2600708007812500,28.8068199157714840,81,124,101,84,63,11240,2146957613,2147521243,2147271232,2147428443,2147201088,2147266880,2148042011,2147153947,3188,-2,9,31566
1366480066,5807,120.9499969482421900,22.3682994842529300,36.5633010864257800,242.3728942871093800,9.9800252914428710,22.4179496765136720,28.5158996582031250,92,140,104,88,62,11211,2146962834,2147524425,2147272978,2147428736,2147220050,2147287972,2148067419,2147159643,3402,-1,9,44675
1366480193,5802,117.3700027465820300,22.7299995422363280,36.6026992797851560,242.1067962646484400,0.3891617059707642,22.7129802703857420,28.4079303741455080,122,156,104,90,63,11195,2146962194,2147526400,2147277266,2147425865,2147249600,2147347913,2148143780,2147167433,1013,-2,9,2726
1366480332,5807,112.7600021362304700,22.8236007690429700,36.5957984924316400,241.7946929931640600,-3.0246820449829100,22.8181190490722660,28.3794593811035160,127,134,102,89,62,11187,2146966674,2147530057,2147284233,2147425974,2147341476,2147510619,2148358692,2147178413,555,-2,9,32011
1366480423,5806,108.8300018310546900,22.8708000183105470,36.5908012390136700,241.6396942138672000,-4.6770219802856445,22.8690395355224600,28.3656291961669920,127,135,102,87,63,11192,2146967131,2147532772,2147289133,2147421970,2147401069,2147602925,2148477202,2147188397,309,-2,8,39082
1366480526,5803,104.7200012207031200,22.9619007110595700,36.5754013061523440,241.4340057373047000,-7.3536520004272460,22.9515495300292970,28.3416404724121100,132,136,101,87,63,11196,2146965942,2147532141,2147284580,2147424548,2147375570,2147522486,2148354587,2147187282,3425,-2,9,16004
1366480617,5804,100.5899963378906200,23.1005992889404300,36.5661010742187500,240.5135955810547000,-13.3881702423095700,23.1377296447753900,28.3076496124267580,129,133,102,88,62,11189,2146963693,2147529344,2147280182,2147424310,2147345728,2147444333,2148235922,2147175606,3388,-2,9,50383
1366480672,5804,97.7399978637695300,23.2311000823974600,36.5583992004394500,240.4440002441406200,-16.1576309204101560,23.2232398986816400,28.2762393951416000,127,133,102,87,63,11192,2146968438,2147533056,2147286701,2147425417,2147404717,2147539584,2148351076,2147185993,3155,-2,9,60592
1366480727,5802,95.0999984741211000,23.2814006805419920,36.5555000305175800,240.9559020996093800,-17.7333602905273440,23.2719192504882800,28.2338008880615230,120,138,102,87,64,11190,2146972013,2147539666,2147294125,2147425545,2147519122,2147725019,2148594066,2147210422,2760,-2,9,43378
1366480782,5806,92.4700012207031200,23.2791004180908200,36.5406990051269500,241.5166015625000000,-18.0135498046875000,23.2805805206298830,28.2052803039550780,125,135,102,87,64,11191,2146974509,2147545024,2147303899,2147423972,2147640822,2147914404,2148836388,2147226075,2397,-2,9,50114
1366480837,5805,89.8499984741211000,23.3111000061035160,36.5163002014160160,242.1638031005859400,-18.8313198089599600,23.3058490753173830,28.1662807464599600,118,140,103,87,63,11192,2146978724,2147550811,2147319643,2147423442,2147785225,2148141293,2149119250,2147254811,2401,-1,8,63105
1366480894,5802,87.5500030517578100,23.3180007934570300,36.5051002502441400,242.9976959228515600,-19.1409091949462900,23.3154106140136720,28.1256103515625000,115,139,104,89,63,11179,2146986624,2147561481,2147334573,2147424109,2147991506,2148470701,2149523821,2147296347,2029,-2,9,45377
1366480949,5804,85.5400009155273400,23.3192005157470700,36.4897994995117200,243.3114013671875000,-19.1378707885742200,23.3153190612792970,28.1118507385253900,115,138,104,87,63,11190,2146990518,2147565970,2147345773,2147423067,2148130432,2148675556,2149766180,2147320393,1482,-1,9,36742
1366481004,5804,83.6100006103515600,23.3169994354248050,36.4720001220703100,243.7505035400390600,-19.1142597198486330,23.3145904541015620,28.0928306579589840,119,141,103,87,63,11193,2146997622,2147576027,2147359899,2147425316,2148289517,2148897865,2150037376,2147345572,1222,-1,9,48012
1366481059,5807,81.6800003051757800,23.3416004180908200,36.4686012268066400,243.5803070068359400,-19.8267898559570300,23.3366107940673830,28.0914897918701170,118,137,103,88,63,11188,2147004388,2147584685,2147373120,2147428214,2148549037,2149278171,2150470418,2147393133,1211,-2,9,11793
1366481114,5802,79.7600021362304700,23.3390998840332030,36.4347000122070300,243.9373016357422000,-19.8561000823974600,23.3375205993652340,28.0753593444824220,124,144,103,88,63,11176,2147016521,2147597330,2147391945,2147428425,2148817243,2149655405,2150903808,2147437302,1157,-2,9,18042
1366481169,5805,78.0299987792968800,23.3477993011474600,36.4131011962890600,244.3874969482422000,-20.0770893096923830,23.3443508148193360,28.0529594421386720,129,138,104,90,63,11176,2147022683,2147606619,2147401920,2147429238,2148973632,2149865106,2151122697,2147467072,584,-2,9,57632
1366481248,5802,75.3700027465820300,23.3560009002685550,36.4077987670898440,244.3321990966797000,-20.7781105041503900,23.3660202026367200,28.0465602874755860,125,138,105,89,63,11170,2147028699,2147607616,2147404251,2147427977,2149033106,2149868589,2151070902,2147471798,3312,-1,8,34436
1366481303,5803,72.8399963378906200,23.4820003509521500,36.4384994506835940,241.5933990478515600,-25.3316001892089840,23.5068607330322270,28.1110801696777340,143,135,103,87,62,11150,2147031744,2147614180,2147412717,2147430765,2149221403,2150095616,2151269476,2147502473,3442,-2,9,43910
1366481358,5805,70.3899993896484400,23.5659999847412100,36.4104995727539060,239.5979003906250000,-26.9875793457031250,23.5581207275390620,28.1797103881835940,150,136,104,89,62,11139,2147055652,2147646189,2147454299,2147432310,2149882285,2150982180,2152256612,2147617408,3419,-2,9,42252
1366481413,5808,68.4000015258789000,23.5825996398925780,36.3717994689941400,240.6739959716797000,-27.5580997467041000,23.5757808685302730,28.1245403289794920,148,138,102,89,62,11139,2147081060,2147667364,2147492397,2147437321,2150475821,2151760886,2153108434,2147719104,2603,-2,9,19599
1366481468,5804,66.5899963378906200,23.5401992797851560,36.3424987792968750,243.0543975830078000,-26.5153198242187500,23.5435009002685550,28.0318698883056640,134,147,107,89,62,11142,2147091620,2147681307,2147503990,2147440283,2150685677,2151997138,2153287744,2147750116,2335,-2,9,47290
1366481523,5803,64.5800018310546900,23.5748996734619140,36.3464012145996100,243.9635925292968800,-27.5639991760253900,23.5759601593017580,27.9789791107177730,129,142,103,88,62,11149,2147103058,2147695195,2147519744,2147437019,2151037449,2152393078,2153641042,2147803236,2314,-2,9,61379
1366481602,5803,61.0800018310546900,23.6471996307373050,36.3376007080078100,243.4586944580078000,-29.6328392028808600,23.6400203704834000,27.9754600524902340,135,139,104,87,60,11150,2147119853,2147712502,2147535158,2147443638,2151506614,2152867574,2153987638,2147870811,2260,-2,9,1147
1366481657,5807,58.1300010681152340,23.6537990570068360,36.3297004699707000,244.0970001220703000,-29.9478492736816400,23.6497802734375000,27.9434795379638670,123,139,104,89,62,11157,2147108214,2147693741,2147508096,2147438482,2151246848,2152410870,2153338020,2147820937,1917,-2,9,942
1366481712,5804,55.1100006103515600,23.6585006713867200,36.3245010375976560,244.4225006103515600,-30.1169109344482420,23.6550102233886720,27.9272499084472660,121,148,104,88,62,11154,2147085577,2147666468,2147458569,2147439195,2150693019,2151574500,2152348306,2147720576,1555,-2,9,14070
1366481854,5803,48.7200012207031250,23.7837009429931640,36.2683982849121100,245.9878997802734400,-33.9742012023925800,23.7745399475097660,27.8114795684814450,101,139,105,89,61,11143,2147058569,2147628626,2147407625,2147434916,2149855067,2150373632,2150941293,2147568246,1323,-2,9,34013
1366481889,5807,47.1199989318847660,23.7901992797851560,36.2597007751464840,246.3818054199218800,-34.2424888610839840,23.7828598022460940,27.7911796569824220,100,139,105,89,61,11145,2147098349,2147677952,2147463405,2147439131,2150822637,2151523547,2152039963,2147719990,1273,-2,9,42488
1366481922,5807,45.7599983215332000,23.7926006317138670,36.2596015930175800,246.8043975830078000,-34.5232696533203100,23.7915706634521500,27.7693290710449220,96,138,107,90,61,11139,2147167588,2147745481,2147553380,2147450514,2152615552,2153662720,2154063213,2148018294,1221,-2,10,22967
1366481979,5805,43.4700012207031250,23.8502998352050780,36.2527008056640600,247.2100982666015600,-36.2085609436035160,23.8438301086425780,27.7311401367187500,97,141,103,92,61,11134,2147316653,2147911798,2147750912,2147478043,2156798473,2158607725,2158683638,2148727433,1142,-2,8,2668
1366482024,5805,41.7599983215332000,23.9647998809814450,36.2560005187988300,247.1183013916015600,-39.7911682128906250,23.9549808502197270,27.6911392211914060,95,141,103,91,61,11131,2147401380,2148005494,2147854674,2147492013,2159137069,2161318957,2161156928,2149133851,1110,-1,9,39579
1366482081,5805,39.8400001525878900,24.0228996276855470,36.2598991394043000,247.4284973144531200,-42.3317794799804700,24.0338592529296880,27.6466102600097660,91,139,104,90,61,11127,2147466669,2148070436,2147929581,2147506633,2160970605,2163317568,2162882514,2149431670,971,-1,9,14797
1366482162,5803,37.8100013732910160,24.1229991912841800,36.2630004882812500,248.4187011718750000,-44.8990516662597660,24.1136207580566400,27.5727405548095700,88,134,106,90,59,11138,2147541376,2148139785,2148003017,2147519168,2162939392,2165403730,2164594752,2149758802,887,-1,9,12368
1366482242,5805,35.5699996948242200,24.3166007995605470,36.2710990905761700,246.4965972900390600,-54.3332481384277340,24.4070796966552730,27.5397300720214840,84,134,103,90,61,11139,2147595081,2148194313,2148057846,2147534491,2164474587,2166924315,2165686656,2149990390,517,-1,9,31460
1366482287,5805,33.8699989318847660,24.7071990966796880,36.2360992431640600,246.3305969238281200,-62.4276504516601560,24.6593704223632800,27.4479293823242200,82,128,104,87,60,11149,2147649371,2148242313,2148104704,2147541988,2166045970,2168510034,2166917385,2150278491,748,-1,9,63719
1366482380,5807,31.7999992370605470,24.7782993316650400,36.2372016906738300,250.0749969482422000,-66.3215332031250000,24.7809104919433600,27.2409801483154300,81,129,102,87,61,11152,2147789842,2148381257,2148257042,2147573348,2170149403,2172976009,2170750098,2151028361,941,0,8,11721
1366482521,5805,29.6299991607666000,24.9507007598876950,36.1838989257812500,252.5644989013672000,-71.6010284423828100,24.9458694458007800,27.0724906921386720,83,128,101,88,62,11150,2147894848,2148479542,2148357952,2147600356,2173114496,2176012050,2173216109,2151642532,547,0,9,54079